[Iaude] MPEC B45: 2008 MU1 [a=1.90,e=0.44,i=40.8,H=19.7]

mpec at si.edu mpec at si.edu
Mon Jan 23 12:25:43 EST 2017


M.P.E.C. 2017-B45                                Issued 2017 Jan. 23, 17:22 UT
 
     The Minor Planet Electronic Circulars contain information on unusual
         minor planets and routine data on comets.  They are published
    on behalf of Division F of the International Astronomical Union by the
          Minor Planet Center, Smithsonian Astrophysical Observatory,
                          Cambridge, MA 02138, U.S.A.

             Prepared using the Tamkin Foundation Computer Network

                              MPC at CFA.HARVARD.EDU
            URL http://www.minorplanetcenter.net/    ISSN 1523-6714


                                   2008 MU1
 
                           Revision to MPEC 2008-N05
 
Additional Observations:
     K08M01U  C2017 01 22.23777 07 26 30.53 +22 44 30.8          21.4 RoEB045926
     K08M01U  C2017 01 22.24957 07 26 28.91 +22 44 17.5          21.9 RoEB045926
     K08M01U  C2017 01 22.26137 07 26 27.22 +22 44 04.4          21.3 RoEB045926
     K08M01U  C2017 01 23.22245 07 24 17.70 +22 26 06.2          21.4 RoEB045926
     K08M01U  C2017 01 23.23426 07 24 16.08 +22 25 53.2          21.8 RoEB045926
     K08M01U  C2017 01 23.24606 07 24 14.49 +22 25 39.9          21.3 RoEB045926
     K08M01U  C2017 01 23.30674 07 24 06.25 +22 24 32.3          21.4 RoEB045926
     K08M01U  C2017 01 23.31854 07 24 04.63 +22 24 18.8          21.5 RoEB045926
     K08M01U  C2017 01 23.33035 07 24 03.03 +22 24 06.1          21.1 RoEB045926
 
Observer details:
926 Tenagra II Observatory.  Observers M. Schwartz, P. R. Holvorcem.  Measurer
    M. Schwartz.  0.81-m f/7 Ritchey-Chretien + CCD.
 
First and last observations above in comparison with prediction:
Residuals in seconds of arc (or two decimals in degrees), reference and Delta-T
170122 926 0.08+ 0.09-    170123 926 0.08+ 0.09-    MPO147446   -0.19 day
 
Orbital elements:
2008 MU1                                                 Earth MOID = 0.2008 AU
Epoch 2017 Feb. 16.0 TT = JDT 2457800.5                 MPC
M  82.52884              (2000.0)            P               Q
n   0.37765051     Peri.   56.56402     +0.81089366     +0.00408589
a   1.8955824      Node   296.32080     -0.41269214     +0.71296073
e   0.4364762      Incl.   40.75794     +0.41489356     +0.70119205
P   2.61           H   19.7           G   0.15           U   2
Residuals in seconds of arc
080630 E12  0.7+  0.3+    080724 A48  0.2+  0.2-    080801 H45  0.6-  0.2-
080630 E12  0.3+  0.7+    080725 H45  0.1-  0.3+    080801 H45  0.5-  0.4+
080630 E12  0.4+  0.3+    080725 H45  0.1-  0.3+    080801 H45  0.5-  0.3+
080630 474  0.2+  0.1+    080725 H45  0.1-  0.2-    080802 H55  0.1+  0.1-
080630 E12  0.5-  1.3+    080725 H45  0.2+  0.3-    080802 H55  0.3+  0.0
080630 474  0.0   0.3+    080725 H45  0.1+  0.4-    080802 A53  0.3+  0.0
080630 E12  0.6-  1.2+    080725 H45  0.2-  0.0     080802 A53  0.1+  0.6-
080630 E12  0.2+  1.0+    080725 H45  0.1-  0.8+    080802 A53  0.1-  1.0-
080630 474  0.2+  0.0     080725 151  0.1-  0.4-    080803 H45  0.3-  0.2-
080630 E12  0.1-  0.3+    080725 151  0.5-  0.6-    080803 H45  0.6-  0.4+
080630 E12  0.1-  0.9+    080725 151  0.5-  0.3-    080803 H45  0.7-  0.7+
080630 E12  0.1-  0.5+    080725 151  0.1+  0.3-    080803 H45  0.1-  0.3+
080701 F85  1.0-  0.4+    080725 151  0.2-  0.2-    080803 H45  0.0   0.4+
080701 F85  0.2+  0.5-    080725 151  0.0   0.2+    080803 H45  0.5-  0.6+
080704 F85  0.7-  0.9+    080725 A81  0.4+  0.2-    080803 H45  0.2+  0.2+
080704 F85  0.0   0.2-    080726 J66  0.3-  0.1+    080803 B37 (1.3-  2.2+)
080704 F85  0.2-  0.1-    080726 J66  0.3-  0.1+    080803 B37 (1.3-  2.6+)
080704 F85  0.2+  0.0     080726 J66  1.1-  0.2-    080803 B37 (1.0-  2.2+)
080704 F85  0.3+  0.1-    080727 H55  0.0   0.1-    080803 B37 (0.8-  2.1+)
080704 F85 (1.3+  1.9-)   080727 H55  0.0   0.1-    080803 B37 (0.9-  2.3+)
080710 F85  0.2+  0.3-    080727 H55  0.0   0.1+    080803 B37 (0.5-  1.8+)
080710 F85  0.2+  0.2-    080727 H55  0.1-  0.1-    080803 B37  1.3-  1.0+
080710 E12  0.2+  0.3+    080727 H55  0.4+  0.3+    080803 B37 (0.4-  2.1+)
080710 E12  0.2-  0.3+    080727 B38  0.0   0.9+    080803 B37 (0.3-  2.2+)
080710 E12  0.4+  0.6+    080727 B38  0.4+  1.0+    080803 B37 (1.2-  2.4+)
080710 E12  0.1+  0.0     080727 B38  0.3-  0.3-    080809 H55  0.4+  0.0
080710 E12  0.3+  0.1+    080728 H55  0.0   0.1+    080809 H55  0.3+  0.0
080714 649  0.1+  0.2-    080728 H55  0.0   0.1+    080809 H55  0.3+  0.1-
080714 649  0.4+  0.4-    080728 H55  0.0   0.1+    080809 H55  0.3+  0.1-
080714 649  0.1-  0.1+    080728 H45  0.3-  0.0     080812 H55  0.3+  0.2-
080714 649  0.0   0.3-    080728 H45  0.1-  0.7+    080812 H55  0.3+  0.2-
080715 204  0.3+  0.0     080728 H45  0.9-  0.0     080812 H55  0.6+  0.1-
080715 204  0.1+  0.3-    080728 H45  0.5-  0.0     080812 H55  0.3+  0.0
080716 204  0.0   0.3-    080728 H45  0.1+  0.3+    080812 H55  0.4+  0.0
080716 204  0.1+  0.0     080728 H45  0.1+  0.7+    080816 H55  0.8-  0.3+
080716 E12  0.1-  0.2-    080728 H45  0.8-  0.8+    080816 H55  0.2+  0.6+
080716 E12  0.1-  0.0     080728 A78  0.3+  0.1+    080816 H55  0.5+  0.5-
080716 A13  0.7-  0.7+    080728 A78  0.6+  0.3-    080817 H55  0.5+  0.2+
080716 A13  0.7-  0.8+    080728 A78  0.4+  0.1-    080817 H55  0.1+  0.1-
080716 A13 (1.0-  1.8+)   080728 A78  0.4-  0.6-    080817 H55  0.3+  0.1-
080721 H53  0.7-  0.6-    080728 639  0.4+  0.4+    080817 H55  0.1-  0.0
080721 H53 (0.7+  8.4+)   080728 639  0.3+  0.3+    080818 H55  0.1+  0.1-
080721 H53  0.6+  0.1-    080728 639  0.1+  0.1-    080818 H55  0.2+  0.2-
080721 H53 (2.7-  1.9+)   080730 B38  0.1+  0.2+    080818 H55  0.4+  0.1+
080721 H53  1.0+  0.9-    080730 B38  0.5+  0.6+    080828 H55  0.4+  0.2-
080721 H53  0.0   0.4+    080730 B38  0.4+  0.4+    080828 H55  0.6+  0.2-
080722 J95  0.4-  0.5-    080730 B38  0.5+  0.7+    080828 H55  0.4+  0.2-
080722 J95  0.1-  0.4-    080730 B38  0.4+  0.5+    080830 H55  0.6+  0.3-
080722 J95  0.2-  0.8-    080730 B38  0.4-  0.3+    080830 H55  0.8+  0.4-
080722 B19  0.6+  0.1+    080730 B38  1.2-  0.2-    080830 H55  0.2+  0.2-
080722 B19 (1.6-  0.1-)   080731 H45  0.3+  0.1+    080830 H55  0.4+  0.6-
080722 B19  0.4+  0.9-    080731 H45  0.2+  0.0     080911 H55  0.3-  0.0
080723 H55  0.1+  0.1+    080731 H45  0.3+  0.4+    080911 H55  0.4+  0.3+
080723 H55  0.3+  0.2+    080731 H45  0.5+  0.7+    080911 H55 (2.8+  0.2+)
080723 H55  0.4+  0.0     080731 H45  0.3+  0.1+    170122 926  0.2-  0.3+
080723 H55  0.0   0.0     080731 H45  0.5-  0.4+    170122 926  0.2+  0.3+
080723 H55  0.2+  0.1+    080731 H45  0.6+  0.3-    170122 926  0.3-  0.4+
080723 151  0.4+  0.8-    080731 H45  0.3+  0.1+    170123 926  0.3+  0.2+
080723 151  1.1+  0.5+    080801 B67  0.5-  0.5+    170123 926  0.2+  0.3+
080723 A13 (1.0-  2.0+)   080801 B67  0.4-  0.1-    170123 926  0.4+  0.1+
080723 A13 (1.1-  1.9+)   080801 B67  0.5-  0.7+    170123 926  0.8+  0.3+
080723 A13 (1.1-  1.7+)   080801 H45  0.1-  0.2-    170123 926  0.6+  0.1+
080723 A13 (0.9-  1.8+)   080801 H45  0.2-  0.4+    170123 926  0.7+  0.6+
080724 A48  0.7-  0.1-    080801 H45  0.1-  0.5+
080724 A48  0.0   0.1-    080801 H45  0.4-  0.5+

Ephemeris:
2008 MU1                 a,e,i = 1.90, 0.44, 41                  q = 1.0682
Date    TT    R. A. (2000) Decl.     Delta      r     Elong.  Phase     V
2016 12 24    08 46 23.9 +31 18 06   0.9621  1.8539   144.7    17.9    21.9
...
2017 01 08    08 03 46.0 +27 13 31   0.9626  1.9357   168.2     6.0    21.5
...
2017 01 16    07 41 46.3 +24 43 04   0.9955  1.9778   175.7     2.1    21.4
...
2017 01 22    07 27 03.1 +22 49 01   1.0355  2.0087   168.0     5.8    21.8
2017 01 23    07 24 47.3 +22 30 17   1.0434  2.0138   166.6     6.5    21.8
2017 01 24    07 22 35.1 +22 11 42   1.0516  2.0189   165.1     7.2    21.9
...
2017 01 30    07 10 39.6 +20 23 59   1.1079  2.0489   156.4    11.1    22.2
...
2017 02 07    06 58 20.1 +18 13 53   1.1994  2.0880   145.5    15.5    22.5
...
2017 02 22    06 45 27.3 +14 58 49   1.4099  2.1582   127.3    21.4    23.2

A. U. Tomatic                (C) Copyright 2017 MPC           M.P.E.C. 2017-B45




More information about the Iaude mailing list